FW8483 Weather Reports


Display with metric or nautical units.
time (UTC)temp
F
wind
direction
speed
MPH
gust
MPH
rain 1hr
in
rain 24hr
in
rain mn
in
humidity
%
barometer
mb
20210923180007 73 73 3.0 10.0 0.00 0.00 0.00 56 1015.6
20210923174715 73 24 7.0 11.0 0.00 0.00 0.00 56 1015.7
20210923173044 72 338 3.0 11.0 0.00 0.00 0.00 58 1015.8
20210923171535 71 34 2.0 10.0 0.00 0.00 0.00 60 1016.0
20210923170112 71 282 6.0 12.0 0.00 0.00 0.00 59 1016.0
20210923164550 71 32 3.0 10.0 0.00 0.00 0.00 60 1016.2
20210923163024 70 55 3.0 9.0 0.00 0.00 0.00 61 1016.2
20210923161603 69 46 3.0 16.0 0.00 0.00 0.00 62 1016.4
20210923160052 69 20 3.0 12.0 0.00 0.00 0.00 63 1016.4
20210923154504 68 5 6.0 11.0 0.00 0.00 0.00 64 1016.5
20210923153156 67 337 3.0 12.0 0.00 0.00 0.00 69 1016.5
20210923151526 67 55 4.0 10.0 0.00 0.00 0.00 68 1016.4
20210923150242 66 34 4.0 14.0 0.00 0.00 0.00 68 1016.5
20210923150004 66 17 4.0 14.0 0.00 0.00 0.00 68 1016.5
20210923144554 66 5 7.0 12.0 0.00 0.00 0.00 67 1016.5
20210923143053 65 294 5.0 12.0 0.00 0.00 0.00 71 1016.6
20210923141514 64 25 3.0 13.0 0.00 0.00 0.00 75 1016.5
20210923140137 63 49 4.0 10.0 0.00 0.00 0.00 75 1016.2
20210923130048 60 9 2.0 6.0 0.00 0.00 0.00 88 1016.1
20210923124632 59 334 2.0 4.0 0.00 0.00 0.00 91 1015.8
20210923123117 58 9 1.0 4.0 0.00 0.00 0.00 94 1015.6
20210923121526 57 340 0.0 0.0 0.00 0.00 0.00 96 1015.8
20210923120152 56 309 0.0 0.0 0.00 0.00 0.00 97 1015.5
20210923114614 56 309 0.0 0.0 0.00 0.00 0.00 96 1015.6
20210923113031 56 309 0.0 0.0 0.00 0.00 0.00 96 1015.4
20210923111625 56 336 0.0 0.0 0.00 0.00 0.00 96 1015.3
20210923110212 56 321 0.0 0.0 0.00 0.00 0.00 96 1015.3
20210923104520 57 11 0.0 0.0 0.00 0.00 0.00 95 1015.1
20210923103121 57 19 0.0 0.0 0.00 0.00 0.00 95 1015.0
20210923101616 57 315 0.0 1.0 0.00 0.00 0.00 94 1014.9
20210923100135 58 318 0.0 3.0 0.00 0.00 0.00 94 1014.8
20210923094527 58 266 1.0 3.0 0.00 0.00 0.00 94 1014.6
20210923093018 58 311 1.0 6.0 0.00 0.00 0.00 94 1014.5
20210923091630 58 309 2.0 6.0 0.00 0.00 0.00 94 1014.4
20210923090040 58 355 1.0 5.0 0.00 0.00 0.00 95 1014.4
20210923084523 58 318 2.0 4.0 0.00 0.00 0.00 95 1014.4
20210923083133 59 348 0.0 4.0 0.00 0.00 0.00 95 1014.4
20210923081546 59 316 1.0 3.0 0.00 0.00 0.00 96 1014.5
20210923080024 59 333 0.0 3.0 0.00 0.00 0.00 96 1014.5
20210923074510 59 338 1.0 3.0 0.00 0.00 0.00 96 1014.7
20210923073056 59 323 0.0 2.0 0.00 0.00 0.00 97 1014.8
20210923071608 59 315 0.0 1.0 0.00 0.00 0.00 96 1014.9
20210923070020 60 312 0.0 1.0 0.00 0.00 0.00 96 1015.1
20210923064601 60 327 0.0 0.0 0.00 0.00 0.00 95 1015.1
20210923063031 60 328 0.0 0.0 0.00 0.00 0.00 95 1015.2
20210923061557 61 327 0.0 0.0 0.00 0.00 0.00 94 1015.3
20210923060003 61 327 0.0 0.0 0.00 0.00 0.00 92 1015.3
20210923054608 62 327 0.0 0.0 0.00 0.00 0.00 91 1015.2
20210923053058 62 327 0.0 0.0 0.00 0.00 0.00 91 1015.4
20210923051529 62 327 0.0 1.0 0.00 0.00 0.00 91 1015.4
20210923050050 62 327 0.0 0.0 0.00 0.00 0.00 90 1015.4
20210923044533 63 327 0.0 0.0 0.00 0.00 0.00 89 1015.2
20210923043304 63 327 0.0 0.0 0.00 0.00 0.00 88 1015.3
20210923043001 63 327 0.0 0.0 0.00 0.00 0.00 88 1015.3
20210923041616 64 327 0.0 1.0 0.00 0.00 0.00 86 1015.2
20210923040049 65 324 0.0 1.0 0.00 0.00 0.00 85 1015.3
20210923034508 66 34 1.0 3.0 0.00 0.00 0.00 82 1015.2
20210923033104 66 344 0.0 4.0 0.00 0.00 0.00 81 1015.3
20210923031534 66 10 1.0 4.0 0.00 0.00 0.00 82 1015.2
20210923030044 67 327 0.0 6.0 0.00 0.00 0.00 82 1015.1
20210923024630 67 309 1.0 5.0 0.00 0.00 0.00 82 1015.0
20210923024504 68 309 2.0 5.0 0.00 0.00 0.00 82 1015.0
20210923023048 68 311 1.0 6.0 0.00 0.00 0.00 82 1014.8
20210923021522 68 9 2.0 9.0 0.00 0.00 0.00 83 1014.6
20210923020017 69 355 3.0 8.0 0.00 0.00 0.00 83 1014.4
20210923014652 69 291 1.0 5.0 0.00 0.00 0.00 83 1014.3
20210923013055 70 299 2.0 7.0 0.00 0.00 0.00 82 1014.0
20210923011526 70 329 2.0 7.0 0.00 0.00 0.00 81 1013.7
20210923010135 71 317 1.0 7.0 0.00 0.00 0.00 81 1013.5
20210923004604 71 288 1.0 6.0 0.00 0.00 0.00 79 1013.4
20210923003017 72 18 2.0 13.0 0.00 0.00 0.00 78 1013.0
20210923001640 73 316 2.0 14.0 0.00 0.00 0.00 78 1012.7
20210923000051 73 334 6.0 14.0 0.00 0.00 0.00 76 1012.5
20210922234516 74 289 6.0 13.0 0.00 0.00 0.00 77 1012.2
20210922233116 76 322 4.0 11.0 0.00 0.00 0.00 79 1011.8
20210922231522 77 331 4.0 12.0 0.00 0.00 0.00 77 1011.6
20210922230135 78 349 5.0 12.0 0.00 0.00 0.00 74 1011.5
20210922224552 79 259 3.0 16.0 0.00 0.00 0.00 76 1011.3
20210922223041 80 86 2.0 12.0 0.00 0.00 0.00 78 1011.3
20210922221548 80 343 4.0 10.0 0.00 0.00 0.00 77 1011.3
20210922220039 81 321 3.0 10.0 0.00 0.00 0.00 76 1011.2
20210922214513 82 309 3.0 14.0 0.00 0.00 0.00 77 1011.1
20210922213125 82 296 4.0 11.0 0.00 0.00 0.00 75 1011.0
20210922211548 82 284 3.0 18.0 0.00 0.00 0.00 76 1011.1
20210922210043 84 309 5.0 13.0 0.00 0.00 0.00 72 1011.0
20210922204651 84 277 4.0 10.0 0.00 0.00 0.00 73 1011.0
20210922203051 84 325 5.0 13.0 0.00 0.00 0.00 71 1011.1
20210922201533 83 292 3.0 11.0 0.00 0.00 0.00 74 1011.3
20210922200013 84 300 3.0 10.0 0.00 0.00 0.00 72 1011.3
20210922194741 83 248 3.0 12.0 0.00 0.00 0.00 76 1011.7
20210922193059 83 24 2.0 10.0 0.00 0.00 0.00 79 1011.9
20210922191555 82 284 5.0 11.0 0.00 0.00 0.00 77 1012.1
20210922190024 80 298 5.0 10.0 0.00 0.00 0.00 81 1012.4
20210922184632 80 299 4.0 10.0 0.00 0.00 0.00 82 1012.6
20210922183038 80 339 5.0 11.0 0.00 0.00 0.00 82 1012.6
20210922181544 80 323 3.0 12.0 0.00 0.00 0.00 82 1012.9